Simultaneous Nadir Overpasses (SNOs) Predictions

Prediction of SNOs between GOES-16 and METOP-B Satellite Orbit:

Table of predicted SNOs for the next 14.0 days since TLE Epoch: 5/19/2017
Index Date Time (GOES-16) GOES-16 Lat,Lon METOP-B Lat,Lon Distance(km) Time Diff (sec)
1 05/21/2017 03:36:23 -0.01, -89.49 -0.32, -90.92 163.47 80
2 05/22/2017 03:13:03 -0.01, -89.49 0.81, -85.93 405.60 80
3 05/23/2017 15:31:55 0.01, -89.51 0.21, -90.49 112.00 80
4 05/24/2017 15:13:54 0.01, -89.51 -0.86, -85.49 457.30 80
5 05/26/2017 03:32:54 -0.01, -89.49 -0.12, -90.10 68.49 80
6 05/28/2017 15:28:25 0.00, -89.51 0.07, -89.66 17.51 80
7 05/31/2017 03:26:45 0.00, -89.50 0.04, -89.26 27.43 80
8 06/01/2017 15:45:37 -0.00, -89.53 0.93, -93.83 489.88 80
9 06/02/2017 15:27:37 -0.00, -89.54 -0.15, -88.83 80.24 80




NCC Satellite Simultaneous Nadir Overpasses (SNOs) Prediction Service
